Location: Quedlinburg
(51.7921°N, 11.1414°E)
Time: 08:09:55
(UTC+02:00)

SO-50 - Pass Details

Date: 07 March 2026
Orbit: 567 x 673 km, 64.6° (Epoch: 13 April)

Event Time Altitude Azimuth Distance (km) Brightness Sun altitude
Rises 20:16:28 0° 199° (SSW) 2,920 ? -20.7°
Reaches altitude 10° 20:18:48 10° 192° (SSW) 2,032 ? -21.1°
Enters shadow 20:20:36 22° 180° (S) 1,415 ? -21.3°
